Year,Month,Day,Hour,Minute,Value (Times are PST for temperature in C)
2014,06,21,00,00,12.60
2014,06,21,00,01,12.60
2014,06,21,00,02,12.60
2014,06,21,00,03,12.60
2014,06,21,00,04,12.60
2014,06,21,00,05,12.60
2014,06,21,00,06,12.60
2014,06,21,00,07,12.50
2014,06,21,00,08,12.50
2014,06,21,00,09,12.50
2014,06,21,00,10,12.50
2014,06,21,00,11,12.40
2014,06,21,00,12,12.40
2014,06,21,00,13,12.40
2014,06,21,00,14,12.30
2014,06,21,00,15,12.30
2014,06,21,00,16,12.30
2014,06,21,00,17,12.30
2014,06,21,00,18,12.30
2014,06,21,00,19,12.30
2014,06,21,00,20,12.30
2014,06,21,00,21,12.30
2014,06,21,00,22,12.30
2014,06,21,00,23,12.30
2014,06,21,00,24,12.30
2014,06,21,00,25,12.30
2014,06,21,00,26,12.30
2014,06,21,00,27,12.30
2014,06,21,00,28,12.30
2014,06,21,00,29,12.20
2014,06,21,00,30,12.20
2014,06,21,00,31,12.20
2014,06,21,00,32,12.20
2014,06,21,00,33,12.20
2014,06,21,00,34,12.20
2014,06,21,00,35,12.20
2014,06,21,00,36,12.20
2014,06,21,00,37,12.20
2014,06,21,00,38,12.20
2014,06,21,00,39,12.20
2014,06,21,00,40,12.10
2014,06,21,00,41,12.10
2014,06,21,00,42,12.10
2014,06,21,00,43,12.10
2014,06,21,00,44,12.10
2014,06,21,00,45,12.10
2014,06,21,00,46,12.10
2014,06,21,00,47,12.10
2014,06,21,00,48,12.00
2014,06,21,00,49,12.00
2014,06,21,00,50,11.90
2014,06,21,00,51,11.90
2014,06,21,00,52,11.80
2014,06,21,00,53,11.80
2014,06,21,00,54,11.70
2014,06,21,00,55,11.70
2014,06,21,00,56,11.60
2014,06,21,00,57,11.60
2014,06,21,00,58,11.60
2014,06,21,00,59,11.50
2014,06,21,01,00,11.50
2014,06,21,01,01,11.40
2014,06,21,01,02,11.40
2014,06,21,01,03,11.40
2014,06,21,01,04,11.40
2014,06,21,01,05,11.30
2014,06,21,01,06,11.30
2014,06,21,01,07,11.30
2014,06,21,01,08,11.30
2014,06,21,01,09,11.30
2014,06,21,01,10,11.20
2014,06,21,01,11,11.20
2014,06,21,01,12,11.20
2014,06,21,01,13,11.20
2014,06,21,01,14,11.10
2014,06,21,01,15,11.10
2014,06,21,01,16,11.10
2014,06,21,01,17,11.10
2014,06,21,01,18,11.10
2014,06,21,01,19,11.10
2014,06,21,01,20,11.00
2014,06,21,01,21,11.00
2014,06,21,01,22,11.00
2014,06,21,01,23,10.90
2014,06,21,01,24,10.90
2014,06,21,01,25,10.90
2014,06,21,01,26,10.90
2014,06,21,01,27,10.90
2014,06,21,01,28,10.90
2014,06,21,01,29,10.90
2014,06,21,01,30,10.90
2014,06,21,01,31,10.90
2014,06,21,01,32,10.90
2014,06,21,01,33,10.90
2014,06,21,01,34,10.80
2014,06,21,01,35,10.80
2014,06,21,01,36,10.80
2014,06,21,01,37,10.80
2014,06,21,01,38,10.80
2014,06,21,01,39,10.80
2014,06,21,01,40,10.80
2014,06,21,01,41,10.80
2014,06,21,01,42,10.70
2014,06,21,01,43,10.70
2014,06,21,01,44,10.70
2014,06,21,01,45,10.70
2014,06,21,01,46,10.70
2014,06,21,01,47,10.60
2014,06,21,01,48,10.60
2014,06,21,01,49,10.60
2014,06,21,01,50,10.60
2014,06,21,01,51,10.60
2014,06,21,01,52,10.50
2014,06,21,01,53,10.50
2014,06,21,01,54,10.50
2014,06,21,01,55,10.40
2014,06,21,01,56,10.40
2014,06,21,01,57,10.40
2014,06,21,01,58,10.40
2014,06,21,01,59,10.40
2014,06,21,02,00,10.30
2014,06,21,02,01,10.30
2014,06,21,02,02,10.30
2014,06,21,02,03,10.30
2014,06,21,02,04,10.30
2014,06,21,02,05,10.20
2014,06,21,02,06,10.20
2014,06,21,02,07,10.20
2014,06,21,02,08,10.20
2014,06,21,02,09,10.20
2014,06,21,02,10,10.20
2014,06,21,02,11,10.20
2014,06,21,02,12,10.20
2014,06,21,02,13,10.20
2014,06,21,02,14,10.20
2014,06,21,02,15,10.10
2014,06,21,02,16,10.10
2014,06,21,02,17,10.10
2014,06,21,02,18,10.10
2014,06,21,02,19,10.10
2014,06,21,02,20,10.00
2014,06,21,02,21,10.00
2014,06,21,02,22,10.00
2014,06,21,02,23,9.90
2014,06,21,02,24,9.90
2014,06,21,02,25,9.90
2014,06,21,02,26,9.90
2014,06,21,02,27,9.90
2014,06,21,02,28,9.90
2014,06,21,02,29,9.90
2014,06,21,02,30,9.90
2014,06,21,02,31,9.90
2014,06,21,02,32,9.90
2014,06,21,02,33,9.90
2014,06,21,02,34,9.90
2014,06,21,02,35,9.90
2014,06,21,02,36,9.90
2014,06,21,02,37,9.90
2014,06,21,02,38,9.90
2014,06,21,02,39,9.90
2014,06,21,02,40,9.90
2014,06,21,02,41,9.90
2014,06,21,02,42,9.80
2014,06,21,02,43,9.80
2014,06,21,02,44,9.80
2014,06,21,02,45,9.80
2014,06,21,02,46,9.70
2014,06,21,02,47,9.70
2014,06,21,02,48,9.70
2014,06,21,02,49,9.70
2014,06,21,02,50,9.70
2014,06,21,02,51,9.70
2014,06,21,02,52,9.70
2014,06,21,02,53,9.70
2014,06,21,02,54,9.70
2014,06,21,02,55,9.70
2014,06,21,02,56,9.70
2014,06,21,02,57,9.70
2014,06,21,02,58,9.70
2014,06,21,02,59,9.70
2014,06,21,03,00,9.70
2014,06,21,03,01,9.70
2014,06,21,03,02,9.70
2014,06,21,03,03,9.70
2014,06,21,03,04,9.70
2014,06,21,03,05,9.60
2014,06,21,03,06,9.60
2014,06,21,03,07,9.60
2014,06,21,03,08,9.50
2014,06,21,03,09,9.50
2014,06,21,03,10,9.50
2014,06,21,03,11,9.40
2014,06,21,03,12,9.40
2014,06,21,03,13,9.40
2014,06,21,03,14,9.40
2014,06,21,03,15,9.30
2014,06,21,03,16,9.30
2014,06,21,03,17,9.30
2014,06,21,03,18,9.30
2014,06,21,03,19,9.30
2014,06,21,03,20,9.20
2014,06,21,03,21,9.20
2014,06,21,03,22,9.20
2014,06,21,03,23,9.20
2014,06,21,03,24,9.10
2014,06,21,03,25,9.10
2014,06,21,03,26,9.10
2014,06,21,03,27,9.10
2014,06,21,03,28,9.10
2014,06,21,03,29,9.10
2014,06,21,03,30,9.10
2014,06,21,03,31,9.00
2014,06,21,03,32,9.00
2014,06,21,03,33,9.00
2014,06,21,03,34,9.00
2014,06,21,03,35,9.00
2014,06,21,03,36,9.00
2014,06,21,03,37,9.00
2014,06,21,03,38,9.00
2014,06,21,03,39,9.00
2014,06,21,03,40,9.00
2014,06,21,03,41,9.00
2014,06,21,03,42,9.00
2014,06,21,03,43,9.00
2014,06,21,03,44,9.00
2014,06,21,03,45,9.00
2014,06,21,03,46,9.00
2014,06,21,03,47,9.00
2014,06,21,03,48,9.00
2014,06,21,03,49,9.00
2014,06,21,03,50,8.90
2014,06,21,03,51,8.90
2014,06,21,03,52,8.90
2014,06,21,03,53,8.90
2014,06,21,03,54,8.90
2014,06,21,03,55,8.90
2014,06,21,03,56,8.90
2014,06,21,03,57,8.90
2014,06,21,03,58,8.90
2014,06,21,03,59,8.90
2014,06,21,04,00,8.90
2014,06,21,04,01,8.90
2014,06,21,04,02,8.90
2014,06,21,04,03,8.90
2014,06,21,04,04,8.90
2014,06,21,04,05,8.90
2014,06,21,04,06,8.90
2014,06,21,04,07,8.90
2014,06,21,04,08,8.90
2014,06,21,04,09,8.90
2014,06,21,04,10,8.90
2014,06,21,04,11,8.80
2014,06,21,04,12,8.80
2014,06,21,04,13,8.80
2014,06,21,04,14,8.80
2014,06,21,04,15,8.80
2014,06,21,04,16,8.80
2014,06,21,04,17,8.70
2014,06,21,04,18,8.70
2014,06,21,04,19,8.70
2014,06,21,04,20,8.70
2014,06,21,04,21,8.70
2014,06,21,04,22,8.70
2014,06,21,04,23,8.70
2014,06,21,04,24,8.70
2014,06,21,04,25,8.70
2014,06,21,04,26,8.70
2014,06,21,04,27,8.70
2014,06,21,04,28,8.70
2014,06,21,04,29,8.60
2014,06,21,04,30,8.60
2014,06,21,04,31,8.60
2014,06,21,04,32,8.60
2014,06,21,04,33,8.60
2014,06,21,04,34,8.60
2014,06,21,04,35,8.60
2014,06,21,04,36,8.50
2014,06,21,04,37,8.50
2014,06,21,04,38,8.50
2014,06,21,04,39,8.50
2014,06,21,04,40,8.40
2014,06,21,04,41,8.40
2014,06,21,04,42,8.40
2014,06,21,04,43,8.40
2014,06,21,04,44,8.40
2014,06,21,04,45,8.40
2014,06,21,04,46,8.30
2014,06,21,04,47,8.30
2014,06,21,04,48,8.30
2014,06,21,04,49,8.30
2014,06,21,04,50,8.30
2014,06,21,04,51,8.30
2014,06,21,04,52,8.20
2014,06,21,04,53,8.20
2014,06,21,04,54,8.20
2014,06,21,04,55,8.20
2014,06,21,04,56,8.20
2014,06,21,04,57,8.10
2014,06,21,04,58,8.10
2014,06,21,04,59,8.10
2014,06,21,05,00,8.10
2014,06,21,05,01,8.10
2014,06,21,05,02,8.10
2014,06,21,05,03,8.10
2014,06,21,05,04,8.10
2014,06,21,05,05,8.10
2014,06,21,05,06,8.10
2014,06,21,05,07,8.20
2014,06,21,05,08,8.20
2014,06,21,05,09,8.10
2014,06,21,05,10,8.10
2014,06,21,05,11,8.10
2014,06,21,05,12,8.10
2014,06,21,05,13,8.10
2014,06,21,05,14,8.10
2014,06,21,05,15,8.10
2014,06,21,05,16,8.00
2014,06,21,05,17,8.00
2014,06,21,05,18,8.00
2014,06,21,05,19,7.90
2014,06,21,05,20,7.90
2014,06,21,05,21,7.90
2014,06,21,05,22,7.90
2014,06,21,05,23,7.90
2014,06,21,05,24,7.90
2014,06,21,05,25,7.90
2014,06,21,05,26,7.80
2014,06,21,05,27,7.80
2014,06,21,05,28,7.80
2014,06,21,05,29,7.90
2014,06,21,05,30,7.90
2014,06,21,05,31,7.90
2014,06,21,05,32,7.80
2014,06,21,05,33,7.80
2014,06,21,05,34,7.80
2014,06,21,05,35,7.80
2014,06,21,05,36,7.80
2014,06,21,05,37,7.80
2014,06,21,05,38,7.80
2014,06,21,05,39,7.80
2014,06,21,05,40,7.80
2014,06,21,05,41,7.80
2014,06,21,05,42,7.80
2014,06,21,05,43,7.80
2014,06,21,05,44,7.80
2014,06,21,05,45,7.70
2014,06,21,05,46,7.70
2014,06,21,05,47,7.70
2014,06,21,05,48,7.70
2014,06,21,05,49,7.80
2014,06,21,05,50,7.80
2014,06,21,05,51,7.80
2014,06,21,05,52,7.80
2014,06,21,05,53,7.80
2014,06,21,05,54,7.80
2014,06,21,05,55,7.80
2014,06,21,05,56,7.90
2014,06,21,05,57,7.90
2014,06,21,05,58,7.90
2014,06,21,05,59,7.90
2014,06,21,06,00,7.90
2014,06,21,06,01,7.90
2014,06,21,06,02,7.90
2014,06,21,06,03,7.90
2014,06,21,06,04,8.00
2014,06,21,06,05,8.00
2014,06,21,06,06,8.00
2014,06,21,06,07,8.00
2014,06,21,06,08,8.10
2014,06,21,06,09,8.10
2014,06,21,06,10,8.10
2014,06,21,06,11,8.10
2014,06,21,06,12,8.20
2014,06,21,06,13,8.20
2014,06,21,06,14,8.20
2014,06,21,06,15,8.30
2014,06,21,06,16,8.30
2014,06,21,06,17,8.40
2014,06,21,06,18,8.40
2014,06,21,06,19,8.40
2014,06,21,06,20,8.50
2014,06,21,06,21,8.50
2014,06,21,06,22,8.60
2014,06,21,06,23,8.60
2014,06,21,06,24,8.70
2014,06,21,06,25,8.70
2014,06,21,06,26,8.80
2014,06,21,06,27,8.80
2014,06,21,06,28,8.90
2014,06,21,06,29,8.90
2014,06,21,06,30,9.00
2014,06,21,06,31,9.10
2014,06,21,06,32,9.10
2014,06,21,06,33,9.20
2014,06,21,06,34,9.20
2014,06,21,06,35,9.30
2014,06,21,06,36,9.30
2014,06,21,06,37,9.30
2014,06,21,06,38,9.40
2014,06,21,06,39,9.40
2014,06,21,06,40,9.50
2014,06,21,06,41,9.50
2014,06,21,06,42,9.60
2014,06,21,06,43,9.60
2014,06,21,06,44,9.70
2014,06,21,06,45,9.70
2014,06,21,06,46,9.80
2014,06,21,06,47,9.80
2014,06,21,06,48,9.90
2014,06,21,06,49,9.90
2014,06,21,06,50,10.00
2014,06,21,06,51,10.00
2014,06,21,06,52,10.10
2014,06,21,06,53,10.10
2014,06,21,06,54,10.20
2014,06,21,06,55,10.20
2014,06,21,06,56,10.30
2014,06,21,06,57,10.30
2014,06,21,06,58,10.40
2014,06,21,06,59,10.40
2014,06,21,07,00,10.40
2014,06,21,07,01,10.40
2014,06,21,07,02,10.40
2014,06,21,07,03,10.40
2014,06,21,07,04,10.40
2014,06,21,07,05,10.50
2014,06,21,07,06,10.50
2014,06,21,07,07,10.60
2014,06,21,07,08,10.60
2014,06,21,07,09,10.60
2014,06,21,07,10,10.60
2014,06,21,07,11,10.70
2014,06,21,07,12,10.70
2014,06,21,07,13,10.70
2014,06,21,07,14,10.80
2014,06,21,07,15,10.80
2014,06,21,07,16,10.90
2014,06,21,07,17,11.00
2014,06,21,07,18,11.10
2014,06,21,07,19,11.10
2014,06,21,07,20,11.20
2014,06,21,07,21,11.30
2014,06,21,07,22,11.40
2014,06,21,07,23,11.50
2014,06,21,07,24,11.60
2014,06,21,07,25,11.70
2014,06,21,07,26,11.80
2014,06,21,07,27,11.80
2014,06,21,07,28,11.90
2014,06,21,07,29,12.00
2014,06,21,07,30,12.10
2014,06,21,07,31,12.20
2014,06,21,07,32,12.30
2014,06,21,07,33,12.40
2014,06,21,07,34,12.50
2014,06,21,07,35,12.50
2014,06,21,07,36,12.60
2014,06,21,07,37,12.60
2014,06,21,07,38,12.70
2014,06,21,07,39,12.70
2014,06,21,07,40,12.80
2014,06,21,07,41,12.80
2014,06,21,07,42,12.80
2014,06,21,07,43,12.80
2014,06,21,07,44,12.80
2014,06,21,07,45,12.70
2014,06,21,07,46,12.70
2014,06,21,07,47,12.70
2014,06,21,07,48,12.70
2014,06,21,07,49,12.80
2014,06,21,07,50,12.80
2014,06,21,07,51,12.80
2014,06,21,07,52,12.80
2014,06,21,07,53,12.80
2014,06,21,07,54,12.80
2014,06,21,07,55,12.90
2014,06,21,07,56,13.00
2014,06,21,07,57,13.00
2014,06,21,07,58,13.10
2014,06,21,07,59,13.20
2014,06,21,08,00,13.30
2014,06,21,08,01,13.40
2014,06,21,08,02,13.50
2014,06,21,08,03,13.70
2014,06,21,08,04,13.80
2014,06,21,08,05,13.90
2014,06,21,08,06,14.00
2014,06,21,08,07,14.10
2014,06,21,08,08,14.10
2014,06,21,08,09,14.10
2014,06,21,08,10,14.10
2014,06,21,08,11,14.20
2014,06,21,08,12,14.20
2014,06,21,08,13,14.20
2014,06,21,08,14,14.20
2014,06,21,08,15,14.20
2014,06,21,08,16,14.20
2014,06,21,08,17,14.20
2014,06,21,08,18,14.10
2014,06,21,08,19,14.10
2014,06,21,08,20,14.00
2014,06,21,08,21,13.90
2014,06,21,08,22,13.80
2014,06,21,08,23,13.70
2014,06,21,08,24,13.70
2014,06,21,08,25,13.70
2014,06,21,08,26,13.70
2014,06,21,08,27,13.60
2014,06,21,08,28,13.60
2014,06,21,08,29,13.60
2014,06,21,08,30,13.60
2014,06,21,08,31,13.60
2014,06,21,08,32,13.70
2014,06,21,08,33,13.70
2014,06,21,08,34,13.70
2014,06,21,08,35,13.80
2014,06,21,08,36,13.80
2014,06,21,08,37,13.90
2014,06,21,08,38,13.90
2014,06,21,08,39,13.90
2014,06,21,08,40,13.90
2014,06,21,08,41,13.90
2014,06,21,08,42,13.90
2014,06,21,08,43,13.90
2014,06,21,08,44,13.90
2014,06,21,08,45,13.90
2014,06,21,08,46,14.00
2014,06,21,08,47,14.00
2014,06,21,08,48,14.10
2014,06,21,08,49,14.10
2014,06,21,08,50,14.20
2014,06,21,08,51,14.20
2014,06,21,08,52,14.20
2014,06,21,08,53,14.20
2014,06,21,08,54,14.20
2014,06,21,08,55,14.20
2014,06,21,08,56,14.20
2014,06,21,08,57,14.30
2014,06,21,08,58,14.30
2014,06,21,08,59,14.40
2014,06,21,09,00,14.40
2014,06,21,09,01,14.40
2014,06,21,09,02,14.50
2014,06,21,09,03,14.60
2014,06,21,09,04,14.60
2014,06,21,09,05,14.70
2014,06,21,09,06,14.70
2014,06,21,09,07,14.80
2014,06,21,09,08,14.80
2014,06,21,09,09,14.80
2014,06,21,09,10,14.80
2014,06,21,09,11,14.90
2014,06,21,09,12,14.90
2014,06,21,09,13,15.00
2014,06,21,09,14,15.00
2014,06,21,09,15,15.10
2014,06,21,09,16,15.10
2014,06,21,09,17,15.10
2014,06,21,09,18,15.20
2014,06,21,09,19,15.20
2014,06,21,09,20,15.20
2014,06,21,09,21,15.20
2014,06,21,09,22,15.30
2014,06,21,09,23,15.30
2014,06,21,09,24,15.30
2014,06,21,09,25,15.20
2014,06,21,09,26,15.20
2014,06,21,09,27,15.20
2014,06,21,09,28,15.10
2014,06,21,09,29,15.10
2014,06,21,09,30,15.10
2014,06,21,09,31,15.10
2014,06,21,09,32,15.10
2014,06,21,09,33,15.20
2014,06,21,09,34,15.20
2014,06,21,09,35,15.20
2014,06,21,09,36,15.20
2014,06,21,09,37,15.20
2014,06,21,09,38,15.20
2014,06,21,09,39,15.20
2014,06,21,09,40,15.20
2014,06,21,09,41,15.30
2014,06,21,09,42,15.30
2014,06,21,09,43,15.40
2014,06,21,09,44,15.40
2014,06,21,09,45,15.40
2014,06,21,09,46,15.50
2014,06,21,09,47,15.50
2014,06,21,09,48,15.60
2014,06,21,09,49,15.60
2014,06,21,09,50,15.60
2014,06,21,09,51,15.70
2014,06,21,09,52,15.80
2014,06,21,09,53,15.80
2014,06,21,09,54,15.80
2014,06,21,09,55,15.90
2014,06,21,09,56,15.90
2014,06,21,09,57,15.90
2014,06,21,09,58,15.90
2014,06,21,09,59,15.90
2014,06,21,10,00,15.90
2014,06,21,10,01,15.90
2014,06,21,10,02,15.90
2014,06,21,10,03,15.80
2014,06,21,10,04,15.80
2014,06,21,10,05,15.80
2014,06,21,10,06,15.70
2014,06,21,10,07,15.60
2014,06,21,10,08,15.50
2014,06,21,10,09,15.50
2014,06,21,10,10,15.40
2014,06,21,10,11,15.50
2014,06,21,10,12,15.50
2014,06,21,10,13,15.50
2014,06,21,10,14,15.50
2014,06,21,10,15,15.50
2014,06,21,10,16,15.50
2014,06,21,10,17,15.50
2014,06,21,10,18,15.50
2014,06,21,10,19,15.60
2014,06,21,10,20,15.70
2014,06,21,10,21,15.80
2014,06,21,10,22,15.80
2014,06,21,10,23,15.90
2014,06,21,10,24,15.90
2014,06,21,10,25,15.90
2014,06,21,10,26,15.90
2014,06,21,10,27,15.90
2014,06,21,10,28,15.90
2014,06,21,10,29,15.90
2014,06,21,10,30,15.90
2014,06,21,10,31,15.90
2014,06,21,10,32,15.90
2014,06,21,10,33,16.00
2014,06,21,10,34,16.10
2014,06,21,10,35,16.10
2014,06,21,10,36,16.10
2014,06,21,10,37,16.20
2014,06,21,10,38,16.20
2014,06,21,10,39,16.20
2014,06,21,10,40,16.20
2014,06,21,10,41,16.20
2014,06,21,10,42,16.30
2014,06,21,10,43,16.30
2014,06,21,10,44,16.40
2014,06,21,10,45,16.40
2014,06,21,10,46,16.40
2014,06,21,10,47,16.40
2014,06,21,10,48,16.50
2014,06,21,10,49,16.50
2014,06,21,10,50,16.60
2014,06,21,10,51,16.70
2014,06,21,10,52,16.70
2014,06,21,10,53,16.80
2014,06,21,10,54,16.80
2014,06,21,10,55,16.90
2014,06,21,10,56,16.90
2014,06,21,10,57,17.00
2014,06,21,10,58,17.00
2014,06,21,10,59,17.00
2014,06,21,11,00,16.90
2014,06,21,11,01,16.80
2014,06,21,11,02,16.70
2014,06,21,11,03,16.70
2014,06,21,11,04,16.70
2014,06,21,11,05,16.70
2014,06,21,11,06,16.80
2014,06,21,11,07,16.90
2014,06,21,11,08,17.00
2014,06,21,11,09,17.10
2014,06,21,11,10,17.20
2014,06,21,11,11,17.30
2014,06,21,11,12,17.30
2014,06,21,11,13,17.30
2014,06,21,11,14,17.30
2014,06,21,11,15,17.40
2014,06,21,11,16,17.40
2014,06,21,11,17,17.40
2014,06,21,11,18,17.40
2014,06,21,11,19,17.40
2014,06,21,11,20,17.40
2014,06,21,11,21,17.50
2014,06,21,11,22,17.50
2014,06,21,11,23,17.50
2014,06,21,11,24,17.60
2014,06,21,11,25,17.60
2014,06,21,11,26,17.60
2014,06,21,11,27,17.70
2014,06,21,11,28,17.80
2014,06,21,11,29,17.90
2014,06,21,11,30,18.00
2014,06,21,11,31,18.10
2014,06,21,11,32,18.10
2014,06,21,11,33,18.00
2014,06,21,11,34,17.90
2014,06,21,11,35,17.80
2014,06,21,11,36,17.80
2014,06,21,11,37,17.80
2014,06,21,11,38,17.80
2014,06,21,11,39,17.70
2014,06,21,11,40,17.70
2014,06,21,11,41,17.60
2014,06,21,11,42,17.60
2014,06,21,11,43,17.70
2014,06,21,11,44,17.70
2014,06,21,11,45,17.70
2014,06,21,11,46,17.80
2014,06,21,11,47,17.80
2014,06,21,11,48,17.90
2014,06,21,11,49,18.00
2014,06,21,11,50,18.10
2014,06,21,11,51,18.20
2014,06,21,11,52,18.20
2014,06,21,11,53,18.10
2014,06,21,11,54,18.10
2014,06,21,11,55,18.10
2014,06,21,11,56,18.10
2014,06,21,11,57,18.10
2014,06,21,11,58,18.00
2014,06,21,11,59,17.90
2014,06,21,12,00,17.90
2014,06,21,12,01,17.90
2014,06,21,12,02,17.90
2014,06,21,12,03,17.90
2014,06,21,12,04,17.90
2014,06,21,12,05,17.90
2014,06,21,12,06,17.90
2014,06,21,12,07,17.90
2014,06,21,12,08,17.90
2014,06,21,12,09,17.90
2014,06,21,12,10,17.90
2014,06,21,12,11,18.00
2014,06,21,12,12,18.00
2014,06,21,12,13,18.10
2014,06,21,12,14,18.20
2014,06,21,12,15,18.30
2014,06,21,12,16,18.30
2014,06,21,12,17,18.30
2014,06,21,12,18,18.20
2014,06,21,12,19,18.20
2014,06,21,12,20,18.20
2014,06,21,12,21,18.30
2014,06,21,12,22,18.30
2014,06,21,12,23,18.40
2014,06,21,12,24,18.40
2014,06,21,12,25,18.40
2014,06,21,12,26,18.40
2014,06,21,12,27,18.30
2014,06,21,12,28,18.30
2014,06,21,12,29,18.30
2014,06,21,12,30,18.30
2014,06,21,12,31,18.30
2014,06,21,12,32,18.30
2014,06,21,12,33,18.30
2014,06,21,12,34,18.30
2014,06,21,12,35,18.30
2014,06,21,12,36,18.20
2014,06,21,12,37,18.20
2014,06,21,12,38,18.20
2014,06,21,12,39,18.20
2014,06,21,12,40,18.30
2014,06,21,12,41,18.30
2014,06,21,12,42,18.40
2014,06,21,12,43,18.40
2014,06,21,12,44,18.30
2014,06,21,12,45,18.20
2014,06,21,12,46,18.20
2014,06,21,12,47,18.10
2014,06,21,12,48,18.00
2014,06,21,12,49,18.00
2014,06,21,12,50,17.90
2014,06,21,12,51,17.90
2014,06,21,12,52,18.00
2014,06,21,12,53,18.10
2014,06,21,12,54,18.20
2014,06,21,12,55,18.20
2014,06,21,12,56,18.30
2014,06,21,12,57,18.40
2014,06,21,12,58,18.40
2014,06,21,12,59,18.40
2014,06,21,13,00,18.30
2014,06,21,13,01,18.30
2014,06,21,13,02,18.20
2014,06,21,13,03,18.20
2014,06,21,13,04,18.20
2014,06,21,13,05,18.20
2014,06,21,13,06,18.10
2014,06,21,13,07,18.10
2014,06,21,13,08,18.10
2014,06,21,13,09,18.10
2014,06,21,13,10,18.10
2014,06,21,13,11,18.10
2014,06,21,13,12,18.00
2014,06,21,13,13,18.00
2014,06,21,13,14,17.90
2014,06,21,13,15,18.00
2014,06,21,13,16,18.00
2014,06,21,13,17,18.00
2014,06,21,13,18,18.10
2014,06,21,13,19,18.10
2014,06,21,13,20,18.20
2014,06,21,13,21,18.30
2014,06,21,13,22,18.30
2014,06,21,13,23,18.50
2014,06,21,13,24,18.50
2014,06,21,13,25,18.60
2014,06,21,13,26,18.60
2014,06,21,13,27,18.60
2014,06,21,13,28,18.60
2014,06,21,13,29,18.60
2014,06,21,13,30,18.60
2014,06,21,13,31,18.60
2014,06,21,13,32,18.60
2014,06,21,13,33,18.60
2014,06,21,13,34,18.60
2014,06,21,13,35,18.50
2014,06,21,13,36,18.60
2014,06,21,13,37,18.70
2014,06,21,13,38,18.70
2014,06,21,13,39,18.80
2014,06,21,13,40,18.80
2014,06,21,13,41,18.90
2014,06,21,13,42,19.00
2014,06,21,13,43,19.00
2014,06,21,13,44,19.10
2014,06,21,13,45,19.00
2014,06,21,13,46,18.90
2014,06,21,13,47,18.90
2014,06,21,13,48,18.90
2014,06,21,13,49,18.90
2014,06,21,13,50,18.90
2014,06,21,13,51,19.00
2014,06,21,13,52,19.00
2014,06,21,13,53,19.00
2014,06,21,13,54,19.00
2014,06,21,13,55,19.00
2014,06,21,13,56,19.00
2014,06,21,13,57,18.90
2014,06,21,13,58,18.90
2014,06,21,13,59,18.90
2014,06,21,14,00,18.90
2014,06,21,14,01,18.90
2014,06,21,14,02,18.90
2014,06,21,14,03,18.90
2014,06,21,14,04,19.00
2014,06,21,14,05,19.10
2014,06,21,14,06,19.10
2014,06,21,14,07,19.20
2014,06,21,14,08,19.30
2014,06,21,14,09,19.30
2014,06,21,14,10,19.30
2014,06,21,14,11,19.20
2014,06,21,14,12,19.10
2014,06,21,14,13,19.00
2014,06,21,14,14,18.90
2014,06,21,14,15,18.90
2014,06,21,14,16,18.90
2014,06,21,14,17,18.90
2014,06,21,14,18,18.90
2014,06,21,14,19,18.90
2014,06,21,14,20,18.90
2014,06,21,14,21,18.90
2014,06,21,14,22,18.90
2014,06,21,14,23,18.90
2014,06,21,14,24,19.00
2014,06,21,14,25,19.00
2014,06,21,14,26,19.00
2014,06,21,14,27,18.90
2014,06,21,14,28,18.90
2014,06,21,14,29,18.90
2014,06,21,14,30,18.80
2014,06,21,14,31,18.80
2014,06,21,14,32,18.70
2014,06,21,14,33,18.70
2014,06,21,14,34,18.70
2014,06,21,14,35,18.70
2014,06,21,14,36,18.70
2014,06,21,14,37,18.70
2014,06,21,14,38,18.70
2014,06,21,14,39,18.70
2014,06,21,14,40,18.80
2014,06,21,14,41,18.80
2014,06,21,14,42,18.90
2014,06,21,14,43,19.00
2014,06,21,14,44,19.10
2014,06,21,14,45,19.10
2014,06,21,14,46,19.10
2014,06,21,14,47,19.10
2014,06,21,14,48,19.00
2014,06,21,14,49,19.00
2014,06,21,14,50,19.10
2014,06,21,14,51,19.00
2014,06,21,14,52,19.00
2014,06,21,14,53,18.90
2014,06,21,14,54,18.80
2014,06,21,14,55,18.80
2014,06,21,14,56,18.80
2014,06,21,14,57,18.80
2014,06,21,14,58,18.80
2014,06,21,14,59,18.90
2014,06,21,15,00,19.00
2014,06,21,15,01,19.10
2014,06,21,15,02,19.10
2014,06,21,15,03,19.20
2014,06,21,15,04,19.40
2014,06,21,15,05,19.50
2014,06,21,15,06,19.60
2014,06,21,15,07,19.60
2014,06,21,15,08,19.60
2014,06,21,15,09,19.60
2014,06,21,15,10,19.50
2014,06,21,15,11,19.40
2014,06,21,15,12,19.40
2014,06,21,15,13,19.40
2014,06,21,15,14,19.40
2014,06,21,15,15,19.30
2014,06,21,15,16,19.30
2014,06,21,15,17,19.30
2014,06,21,15,18,19.30
2014,06,21,15,19,19.30
2014,06,21,15,20,19.30
2014,06,21,15,21,19.30
2014,06,21,15,22,19.40
2014,06,21,15,23,19.40
2014,06,21,15,24,19.50
2014,06,21,15,25,19.60
2014,06,21,15,26,19.60
2014,06,21,15,27,19.60
2014,06,21,15,28,19.60
2014,06,21,15,29,19.60
2014,06,21,15,30,19.60
2014,06,21,15,31,19.60
2014,06,21,15,32,19.60
2014,06,21,15,33,19.50
2014,06,21,15,34,19.50
2014,06,21,15,35,19.50
2014,06,21,15,36,19.50
2014,06,21,15,37,19.60
2014,06,21,15,38,19.60
2014,06,21,15,39,19.70
2014,06,21,15,40,19.70
2014,06,21,15,41,19.80
2014,06,21,15,42,19.80
2014,06,21,15,43,19.80
2014,06,21,15,44,19.80
2014,06,21,15,45,19.90
2014,06,21,15,46,20.10
2014,06,21,15,47,20.10
2014,06,21,15,48,20.10
2014,06,21,15,49,20.10
2014,06,21,15,50,20.10
2014,06,21,15,51,20.00
2014,06,21,15,52,19.90
2014,06,21,15,53,19.90
2014,06,21,15,54,19.80
2014,06,21,15,55,19.70
2014,06,21,15,56,19.70
2014,06,21,15,57,19.60
2014,06,21,15,58,19.60
2014,06,21,15,59,19.70
2014,06,21,16,00,19.70
2014,06,21,16,01,19.80
2014,06,21,16,02,19.90
2014,06,21,16,03,20.00
2014,06,21,16,04,20.10
2014,06,21,16,05,20.10
2014,06,21,16,06,20.00
2014,06,21,16,07,20.00
2014,06,21,16,08,19.90
2014,06,21,16,09,19.90
2014,06,21,16,10,20.00
2014,06,21,16,11,20.10
2014,06,21,16,12,20.10
2014,06,21,16,13,20.10
2014,06,21,16,14,20.10
2014,06,21,16,15,20.00
2014,06,21,16,16,20.00
2014,06,21,16,17,20.00
2014,06,21,16,18,19.90
2014,06,21,16,19,19.80
2014,06,21,16,20,19.80
2014,06,21,16,21,19.80
2014,06,21,16,22,19.80
2014,06,21,16,23,19.80
2014,06,21,16,24,19.80
2014,06,21,16,25,19.80
2014,06,21,16,26,19.90
2014,06,21,16,27,19.90
2014,06,21,16,28,19.90
2014,06,21,16,29,19.90
2014,06,21,16,30,19.90
2014,06,21,16,31,19.90
2014,06,21,16,32,20.00
2014,06,21,16,33,20.00
2014,06,21,16,34,20.10
2014,06,21,16,35,20.20
2014,06,21,16,36,20.30
2014,06,21,16,37,20.30
2014,06,21,16,38,20.30
2014,06,21,16,39,20.30
2014,06,21,16,40,20.30
2014,06,21,16,41,20.30
2014,06,21,16,42,20.30
2014,06,21,16,43,20.30
2014,06,21,16,44,20.20
2014,06,21,16,45,20.20
2014,06,21,16,46,20.20
2014,06,21,16,47,20.20
2014,06,21,16,48,20.20
2014,06,21,16,49,20.20
2014,06,21,16,50,20.30
2014,06,21,16,51,20.40
2014,06,21,16,52,20.60
2014,06,21,16,53,20.60
2014,06,21,16,54,20.60
2014,06,21,16,55,20.50
2014,06,21,16,56,20.50
2014,06,21,16,57,20.50
2014,06,21,16,58,20.50
2014,06,21,16,59,20.50
2014,06,21,17,00,20.50
2014,06,21,17,01,20.60
2014,06,21,17,02,20.60
2014,06,21,17,03,20.60
2014,06,21,17,04,20.50
2014,06,21,17,05,20.50
2014,06,21,17,06,20.50
2014,06,21,17,07,20.60
2014,06,21,17,08,20.60
2014,06,21,17,09,20.70
2014,06,21,17,10,20.70
2014,06,21,17,11,20.70
2014,06,21,17,12,20.80
2014,06,21,17,13,20.80
2014,06,21,17,14,20.80
2014,06,21,17,15,20.80
2014,06,21,17,16,20.80
2014,06,21,17,17,20.80
2014,06,21,17,18,20.90
2014,06,21,17,19,21.00
2014,06,21,17,20,21.00
2014,06,21,17,21,21.00
2014,06,21,17,22,21.00
2014,06,21,17,23,20.90
2014,06,21,17,24,20.80
2014,06,21,17,25,20.70
2014,06,21,17,26,20.70
2014,06,21,17,27,20.70
2014,06,21,17,28,20.70
2014,06,21,17,29,20.60
2014,06,21,17,30,20.70
2014,06,21,17,31,20.70